KA4TEV Fort Meyers FL US current weather conditions

sailwx.info

Wind from 282 at 6 knots gusting 13

Air temperature 31.7° C
Dewpoint 25.0° C

Last reported at 2019-Sep-17 20:09 UTC.
Time now 2019-Sep-17 20:51 UTC

Location: N 26°31' W 081°57'.
View on Google Maps.

See reports from other nearby stations

  
Tides and Currents Weather Stations Pressure Air Temp Water Temp Dewpoint Dewpoint Depression Visibility Wind Speed Wind Dir Waves Ship Positions
date/time (UTC)wind fromknots sea level pressurealtimeterstation pressurevisibilityair tempwater tempwave heightnotes
2019-Sep-17 20:09 282 6 gusting 13 31.7
2019-Sep-17 20:04 292 7 gusting 13 31.7
2019-Sep-17 19:59 303 4 gusting 13 31.7
2019-Sep-17 19:54 273 7 gusting 13 31.7
2019-Sep-17 19:49 291 7 gusting 12 31.7
2019-Sep-17 19:44 299 6 gusting 9 31.7
2019-Sep-17 19:39 265 5 gusting 13 31.7
2019-Sep-17 19:34 239 6 gusting 13 32.2
2019-Sep-17 19:29 304 5 gusting 13 32.2
2019-Sep-17 19:24 261 6 gusting 13 32.2
2019-Sep-17 19:19 264 4 gusting 14 32.2
2019-Sep-17 19:14 290 7 gusting 14 32.2
2019-Sep-17 19:09 279 6 gusting 11 32.2
2019-Sep-17 19:04 299 4 gusting 11 32.2
2019-Sep-17 18:59 277 5 gusting 14 32.2
2019-Sep-17 18:54 273 6 gusting 14 32.2
2019-Sep-17 18:49 257 3 gusting 13 32.2
2019-Sep-17 18:44 270 5 gusting 12 32.2
2019-Sep-17 18:39 267 5 gusting 12 32.2
2019-Sep-17 18:34 265 6 gusting 12 32.2
2019-Sep-17 18:29 323 6 gusting 15 32.2
2019-Sep-17 18:24 272 6 gusting 15 32.8
2019-Sep-17 18:19 288 4 gusting 11 33.3
2019-Sep-17 18:14 299 6 gusting 11 32.8
2019-Sep-17 18:09 360 4 gusting 7 33.3
2019-Sep-17 18:04 325 4 gusting 11 33.3
2019-Sep-17 17:59 340 5 gusting 11 32.8
2019-Sep-17 17:54 299 5 gusting 8 33.3
2019-Sep-17 17:49 360 3 gusting 7 33.3
2019-Sep-17 17:44 293 5 gusting 6 33.3
2019-Sep-17 17:39 319 3 gusting 9 33.3
2019-Sep-17 17:34 332 6 gusting 9 33.3
2019-Sep-17 17:29 319 5 gusting 9 33.3
2019-Sep-17 17:24 298 4 gusting 10 33.3
2019-Sep-17 17:19 294 4 gusting 10 32.8
2019-Sep-17 17:14 296 5 gusting 10 33.3
2019-Sep-17 17:09 355 3 gusting 9 32.8
2019-Sep-17 17:04 342 3 gusting 6 33.3
2019-Sep-17 16:59 316 1 gusting 5 33.3
2019-Sep-17 16:54 021 2 gusting 6 32.8
2019-Sep-17 16:49 276 2 gusting 6 32.2
2019-Sep-17 16:44 268 2 gusting 5 32.2
2019-Sep-17 16:39 292 2 gusting 6 32.8
2019-Sep-17 16:34 311 3 gusting 6 32.2
2019-Sep-17 16:29 279 3 gusting 5 32.8
2019-Sep-17 16:24 300 1 gusting 5 32.8
2019-Sep-17 16:19 279 1 gusting 5 32.2
2019-Sep-17 16:14 360 1 gusting 5 32.8
2019-Sep-17 16:09 324 2 gusting 5 32.8
2019-Sep-17 16:04 324 3 gusting 5 32.8
2019-Sep-17 15:59 057 1 gusting 3 32.8
2019-Sep-17 15:54 074 2 gusting 4 32.2
2019-Sep-17 15:49 014 1 gusting 4 32.2
2019-Sep-17 15:44 073 2 gusting 4 32.2
2019-Sep-17 15:39 024 2 gusting 6 32.2
2019-Sep-17 15:34 005 2 gusting 6 31.7
2019-Sep-17 15:29 054 2 gusting 4 31.7
2019-Sep-17 15:24 038 1 gusting 6 32.2
2019-Sep-17 15:19 035 3 gusting 6 31.7
2019-Sep-17 15:14 052 1 gusting 4 31.7
2019-Sep-17 15:09 338 3 gusting 4 31.7
2019-Sep-17 15:04 329 2 gusting 4 31.7
2019-Sep-17 14:59 313 2 gusting 5 31.7
2019-Sep-17 14:54 339 3 gusting 5 31.1
2019-Sep-17 14:49 334 2 gusting 4 31.1
2019-Sep-17 14:44 336 2 gusting 5 31.1
2019-Sep-17 14:39 337 1 gusting 5 30.6
2019-Sep-17 14:34 345 2 gusting 5 30.6
2019-Sep-17 14:29 064 2 gusting 5 30.6
2019-Sep-17 14:24 031 2 gusting 5 30.6
2019-Sep-17 14:19 025 2 gusting 5 30.0
2019-Sep-17 14:14 074 3 gusting 6 30.0
2019-Sep-17 14:09 030 1 gusting 5 30.0
2019-Sep-17 14:04 080 2 gusting 5 30.0
2019-Sep-17 13:59 050 2 gusting 4 30.0
2019-Sep-17 13:54 052 0 gusting 4 29.4
2019-Sep-17 13:49 067 1 gusting 4 29.4
2019-Sep-17 13:44 355 0 gusting 2 29.4
2019-Sep-17 13:39 350 1 gusting 2 28.9
2019-Sep-17 13:34 011 1 gusting 2 28.9
2019-Sep-17 13:29 005 0 gusting 2 28.3
2019-Sep-17 13:24 340 0 gusting 2 27.8
2019-Sep-17 13:19 315 1 gusting 2 27.8
2019-Sep-17 13:14 314 1 gusting 2 27.2
2019-Sep-17 13:09 315 0 gusting 2 27.2
2019-Sep-17 13:04 298 26.7
2019-Sep-17 12:59 298 0 gusting 2 26.7
2019-Sep-17 12:54 296 0 gusting 2 26.1
2019-Sep-17 12:49 296 1 gusting 2 26.1
2019-Sep-17 12:44 276 1 gusting 2 25.6
2019-Sep-17 12:39 275 1 gusting 2 25.6
2019-Sep-17 12:34 259 1 gusting 2 25.6
2019-Sep-17 12:29 259 0 gusting 2 25.6
2019-Sep-17 12:24 256 25.0
2019-Sep-17 12:19 256 25.0
2019-Sep-17 12:14 257 25.0
2019-Sep-17 12:09 256 24.4
2019-Sep-17 12:04 257 24.4
2019-Sep-17 11:59 256 24.4
2019-Sep-17 11:54 257 23.9
2019-Sep-17 11:49 257 23.9
2019-Sep-17 11:44 257 23.9
2019-Sep-17 11:39 257 23.9
2019-Sep-17 11:34 257 23.9
2019-Sep-17 11:29 257 23.9
2019-Sep-17 11:24 257 23.9
2019-Sep-17 11:19 256 23.9
2019-Sep-17 11:14 022 23.9
2019-Sep-17 11:09 022 23.9
2019-Sep-17 11:04 022 23.9
2019-Sep-17 10:59 022 23.9
2019-Sep-17 10:54 022 23.9
2019-Sep-17 10:49 022 23.9
2019-Sep-17 10:44 022 23.9
2019-Sep-17 10:39 022 23.9
2019-Sep-17 10:34 022 23.9
2019-Sep-17 10:29 022 23.9
2019-Sep-17 10:24 022 23.9
2019-Sep-17 10:19 022 23.9
2019-Sep-17 10:14 022 23.9
2019-Sep-17 10:09 022 23.9
2019-Sep-17 10:04 022 24.4
2019-Sep-17 09:59 022 24.4
2019-Sep-17 09:54 022 24.4
2019-Sep-17 09:49 022 24.4
2019-Sep-17 09:44 022 24.4
2019-Sep-17 09:39 022 24.4
2019-Sep-17 09:34 022 24.4
2019-Sep-17 09:29 022 24.4
2019-Sep-17 09:24 022 24.4
2019-Sep-17 09:19 022 24.4
2019-Sep-17 09:14 022 25.0
2019-Sep-17 09:09 022 24.4
2019-Sep-17 09:04 022 25.0
2019-Sep-17 08:59 022 25.0
2019-Sep-17 08:54 022 25.0
2019-Sep-17 08:49 022 25.0
2019-Sep-17 08:44 022 25.0
2019-Sep-17 08:39 022 25.0
2019-Sep-17 08:34 022 25.0
2019-Sep-17 08:29 022 25.0
2019-Sep-17 08:24 022 25.0
2019-Sep-17 08:19 022 25.0
2019-Sep-17 08:14 022 25.0
2019-Sep-17 08:09 022 25.0
2019-Sep-17 08:04 022 25.0
2019-Sep-17 07:59 022 25.0
2019-Sep-17 07:54 022 25.6
2019-Sep-17 07:49 022 25.6
2019-Sep-17 07:44 022 25.6
2019-Sep-17 07:39 022 25.6
2019-Sep-17 07:34 022 25.6
2019-Sep-17 07:29 022 25.6
2019-Sep-17 07:24 022 25.6
2019-Sep-17 07:19 022 25.6
2019-Sep-17 07:14 022 26.1
2019-Sep-17 07:09 022 26.1
2019-Sep-17 07:04 022 26.1
2019-Sep-17 06:59 022 26.1
2019-Sep-17 06:54 022 26.1
2019-Sep-17 06:49 022 26.7
2019-Sep-17 06:44 022 26.7
2019-Sep-17 06:39 022 26.7
2019-Sep-17 06:34 022 26.7
2019-Sep-17 06:29 022 26.7
2019-Sep-17 06:24 022 26.7
2019-Sep-17 06:19 022 26.7
2019-Sep-17 06:14 022 26.7
2019-Sep-17 06:09 022 27.2
2019-Sep-17 06:04 022 0 gusting 1 27.2
2019-Sep-17 05:59 022 27.2
2019-Sep-17 05:54 022 0 gusting 3 27.2
2019-Sep-17 05:49 031 1 gusting 4 27.2
2019-Sep-17 05:44 064 0 gusting 3 27.2
2019-Sep-17 05:39 039 0 gusting 3 27.2
2019-Sep-17 05:34 056 0 gusting 3 27.2
2019-Sep-17 05:29 029 1 gusting 3 27.2
2019-Sep-17 05:24 024 1 gusting 6 27.2
2019-Sep-17 05:19 046 1 gusting 6 27.2
2019-Sep-17 05:14 030 1 gusting 4 27.2
2019-Sep-17 05:09 355 1 gusting 4 27.2
2019-Sep-17 05:04 029 1 gusting 3 27.8
2019-Sep-17 04:59 036 1 gusting 6 27.8
2019-Sep-17 04:54 360 1 gusting 6 27.8
2019-Sep-17 04:49 021 1 gusting 4 27.8
2019-Sep-17 04:44 014 0 gusting 4 27.8
2019-Sep-17 04:39 344 2 gusting 4 27.8
2019-Sep-17 04:34 022 1 gusting 4 27.2
2019-Sep-17 04:29 011 0 gusting 4 27.2
2019-Sep-17 04:24 005 0 gusting 4 27.2
2019-Sep-17 04:19 355 1 gusting 3 27.8
2019-Sep-17 04:14 330 0 gusting 5 27.8
2019-Sep-17 04:09 348 1 gusting 5 27.8
2019-Sep-17 04:04 005 2 gusting 5 27.8
2019-Sep-17 03:59 339 2 gusting 5 27.8
2019-Sep-17 03:54 336 2 gusting 5 27.8
2019-Sep-17 03:49 334 2 gusting 5 27.8
2019-Sep-17 03:44 321 2 gusting 6 27.8
2019-Sep-17 03:39 342 1 gusting 6 27.8
2019-Sep-17 03:34 340 1 gusting 5 27.8
2019-Sep-17 03:29 346 2 gusting 5 27.8
2019-Sep-17 03:24 309 2 gusting 4 27.8
2019-Sep-17 03:19 314 1 gusting 4 27.8
2019-Sep-17 03:14 327 1 gusting 6 27.8
2019-Sep-17 03:09 323 2 gusting 6 27.8
2019-Sep-17 03:04 284 2 gusting 5 27.8
2019-Sep-17 02:59 300 2 gusting 5 27.8
2019-Sep-17 02:54 325 2 gusting 6 27.8
2019-Sep-17 02:49 294 2 gusting 6 27.8
2019-Sep-17 02:44 300 2 gusting 6 27.8
2019-Sep-17 02:39 308 3 gusting 6 27.8
2019-Sep-17 02:34 300 1 gusting 6 27.8
2019-Sep-17 02:29 315 3 gusting 8 28.3
2019-Sep-17 02:24 302 3 gusting 8 28.3
2019-Sep-17 02:19 350 4 gusting 6 28.3
2019-Sep-17 02:14 316 2 gusting 7 28.3
2019-Sep-17 02:09 338 2 gusting 7 28.3
2019-Sep-17 02:04 327 3 gusting 8 28.3
2019-Sep-17 01:59 329 5 gusting 8 28.3
2019-Sep-17 01:54 319 4 gusting 6 28.3
2019-Sep-17 01:49 318 2 gusting 7 28.3
2019-Sep-17 01:44 333 2 gusting 8 28.3
2019-Sep-17 01:39 316 2 gusting 5 28.3
2019-Sep-17 01:34 319 2 gusting 5 28.3
2019-Sep-17 01:29 315 2 gusting 6 28.3
2019-Sep-17 01:24 327 4 gusting 6 28.3
2019-Sep-17 01:19 298 2 gusting 7 28.3
2019-Sep-17 01:14 316 4 gusting 7 28.3
2019-Sep-17 01:09 325 4 gusting 7 28.3
2019-Sep-17 01:04 339 2 gusting 7 28.3
2019-Sep-17 00:59 281 1 gusting 6 28.3
2019-Sep-17 00:54 303 2 gusting 6 28.3
2019-Sep-17 00:49 271 4 gusting 6 28.3
2019-Sep-17 00:44 306 3 gusting 9 28.3
2019-Sep-17 00:39 325 4 gusting 9 28.3
2019-Sep-17 00:34 323 3 gusting 8 28.3
2019-Sep-17 00:29 296 3 gusting 10 28.3
2019-Sep-17 00:24 311 3 gusting 10 28.3
2019-Sep-17 00:19 314 3 gusting 6 28.9
2019-Sep-17 00:14 321 2 gusting 6 28.9
2019-Sep-17 00:09 330 2 gusting 6 28.9
2019-Sep-17 00:04 284 2 gusting 6 28.9
2019-Sep-16 23:59 319 2 gusting 9 28.9
2019-Sep-16 23:54 323 3 gusting 9 28.9
2019-Sep-16 23:49 290 2 gusting 7 28.9
2019-Sep-16 23:44 294 4 gusting 7 28.9
2019-Sep-16 23:39 307 4 gusting 9 29.4
2019-Sep-16 23:34 299 3 gusting 8 29.4
2019-Sep-16 23:29 276 2 gusting 9 29.4
2019-Sep-16 23:24 288 3 gusting 9 29.4
2019-Sep-16 23:19 292 3 gusting 6 29.4
2019-Sep-16 23:14 280 3 gusting 7 29.4
2019-Sep-16 23:09 294 5 gusting 7 29.4
2019-Sep-16 23:04 298 3 gusting 9 30.0
2019-Sep-16 22:59 287 3 gusting 7 30.0
2019-Sep-16 22:54 335 5 gusting 7 30.0
2019-Sep-16 22:49 300 4 gusting 8 30.0
2019-Sep-16 22:44 229 6 gusting 8 30.6
2019-Sep-16 22:39 292 3 gusting 8 30.6
2019-Sep-16 22:34 292 3 gusting 7 30.6
2019-Sep-16 22:29 284 3 gusting 7 30.6
2019-Sep-16 22:24 263 3 gusting 9 30.6
2019-Sep-16 22:19 320 4 gusting 9 30.6
2019-Sep-16 22:14 315 4 gusting 10 30.6
2019-Sep-16 22:09 271 6 gusting 10 30.6
2019-Sep-16 22:04 321 5 gusting 9 30.6
2019-Sep-16 21:59 291 3 gusting 9 30.6
2019-Sep-16 21:54 271 3 gusting 9 30.6
2019-Sep-16 21:49 286 4 gusting 11 30.6
2019-Sep-16 21:44 303 6 gusting 13 30.6
2019-Sep-16 21:39 310 4 gusting 13 30.6
2019-Sep-16 21:34 279 5 gusting 13 30.6
2019-Sep-16 21:29 275 6 gusting 13 30.6
2019-Sep-16 21:24 317 6 gusting 12 31.1
2019-Sep-16 21:19 300 4 gusting 13 31.1
2019-Sep-16 21:14 310 5 gusting 13 30.6
2019-Sep-16 21:09 318 7 gusting 13 31.1
2019-Sep-16 21:04 276 6 gusting 12 31.1
2019-Sep-16 20:59 296 6 gusting 12 31.1
2019-Sep-16 20:54 288 5 gusting 12 31.1
2019-Sep-16 20:49 313 5 gusting 12 31.1
2019-Sep-16 20:44 317 5 gusting 11 31.1
2019-Sep-16 20:39 303 6 gusting 11 31.1
2019-Sep-16 20:34 290 6 gusting 12 31.1
2019-Sep-16 20:29 282 5 gusting 12 31.1
2019-Sep-16 20:24 286 5 gusting 9 31.7
2019-Sep-16 20:19 291 4 gusting 12 31.7
2019-Sep-16 20:14 263 6 gusting 13 31.7
2019-Sep-16 20:09 273 6 gusting 13 31.7
2019-Sep-16 20:04 240 6 gusting 12 31.7
2019-Sep-16 19:59 270 5 gusting 12 31.7
2019-Sep-16 19:54 266 7 gusting 13 31.7
2019-Sep-16 19:49 281 6 gusting 13 31.7
2019-Sep-16 19:44 279 6 gusting 12 31.1
2019-Sep-16 19:39 283 6 gusting 12 31.7
2019-Sep-16 19:34 270 6 gusting 13 31.1
2019-Sep-16 19:29 251 6 gusting 13 31.1
2019-Sep-16 19:24 245 4 gusting 9 31.7
2019-Sep-16 19:19 252 5 gusting 13 31.1
2019-Sep-16 19:14 257 5 gusting 13 31.7
2019-Sep-16 19:09 288 5 gusting 12 31.7
2019-Sep-16 19:04 306 6 gusting 12 31.1
2019-Sep-16 18:59 269 6 gusting 12 31.1
2019-Sep-16 18:54 273 6 gusting 13 31.7
2019-Sep-16 18:49 245 5 gusting 13 31.7
2019-Sep-16 18:44 252 4 gusting 9 31.7
2019-Sep-16 18:39 276 5 gusting 11 31.1
2019-Sep-16 18:34 261 6 gusting 11 31.7
2019-Sep-16 18:29 250 6 gusting 12 31.7
2019-Sep-16 18:24 309 4 gusting 12 31.7
2019-Sep-16 18:19 275 5 gusting 9 31.7
2019-Sep-16 18:14 286 5 gusting 9 31.7
2019-Sep-16 18:09 257 5 gusting 11 31.7
2019-Sep-16 18:04 275 3 gusting 12 31.7
2019-Sep-16 17:59 281 4 gusting 12 31.7
2019-Sep-16 17:54 282 5 gusting 12 31.7
2019-Sep-16 17:49 283 6 gusting 12 31.7
2019-Sep-16 17:44 275 6 gusting 12 31.7
2019-Sep-16 17:39 271 6 gusting 12 31.7
2019-Sep-16 17:34 285 4 gusting 8 31.7
2019-Sep-16 17:29 277 4 gusting 9 31.1
2019-Sep-16 17:24 277 4 gusting 9 31.7
2019-Sep-16 17:19 287 3 gusting 8 31.7
2019-Sep-16 17:14 274 6 gusting 8 31.7
2019-Sep-16 17:09 283 2 gusting 7 31.7
2019-Sep-16 17:04 288 2 gusting 6 31.7
2019-Sep-16 16:59 252 2 gusting 8 31.7
2019-Sep-16 16:54 287 5 gusting 8 32.2
2019-Sep-16 16:49 277 3 gusting 7 32.2
2019-Sep-16 16:44 327 4 gusting 7 31.7
2019-Sep-16 16:39 272 4 gusting 8 31.7
2019-Sep-16 16:34 263 4 gusting 9 31.7
2019-Sep-16 16:29 288 3 gusting 9 31.7
2019-Sep-16 16:24 275 4 gusting 9 31.7
2019-Sep-16 16:19 294 3 gusting 10 31.7
2019-Sep-16 16:14 277 4 gusting 7 31.7
2019-Sep-16 16:09 248 3 gusting 7 31.7
2019-Sep-16 16:04 264 3 gusting 7 31.1
2019-Sep-16 15:59 298 3 gusting 6 31.7
2019-Sep-16 15:54 338 3 gusting 6 31.1
2019-Sep-16 15:49 271 2 gusting 6 31.1
2019-Sep-16 15:44 324 4 gusting 6 31.1
2019-Sep-16 15:39 333 3 gusting 7 31.1
2019-Sep-16 15:34 300 3 gusting 7 31.1
2019-Sep-16 15:29 313 1 gusting 6 31.7
2019-Sep-16 15:24 348 3 gusting 6 31.1
2019-Sep-16 15:19 306 2 gusting 6 31.1
2019-Sep-16 15:14 323 2 gusting 6 31.7
2019-Sep-16 15:09 005 1 gusting 5 31.1
2019-Sep-16 15:04 306 2 gusting 5 31.1
2019-Sep-16 14:59 275 2 gusting 6 31.1
2019-Sep-16 14:54 337 3 gusting 6 30.6
2019-Sep-16 14:49 317 3 gusting 6 30.6
2019-Sep-16 14:44 327 3 gusting 6 30.6
2019-Sep-16 14:39 350 2 gusting 4 30.0
2019-Sep-16 14:34 331 2 gusting 4 30.0
2019-Sep-16 14:29 323 2 gusting 6 30.0
2019-Sep-16 14:24 306 4 gusting 6 30.0
2019-Sep-16 14:19 342 2 gusting 4 30.0
2019-Sep-16 14:14 345 2 gusting 6 29.4
2019-Sep-16 14:09 321 2 gusting 5 29.4
2019-Sep-16 14:04 323 3 gusting 5 29.4
2019-Sep-16 13:59 322 2 gusting 5 28.9
2019-Sep-16 13:54 315 1 gusting 7 28.9
2019-Sep-16 13:49 030 2 gusting 7 28.9
2019-Sep-16 13:44 005 2 gusting 5 28.9
2019-Sep-16 13:39 340 2 gusting 4 28.3
2019-Sep-16 13:34 010 2 gusting 5 28.3
2019-Sep-16 13:29 320 3 gusting 5 28.3
2019-Sep-16 13:24 334 1 gusting 5 28.3
2019-Sep-16 13:19 024 2 gusting 6 27.8
2019-Sep-16 13:14 350 1 gusting 6 27.8
2019-Sep-16 13:09 333 3 gusting 6 27.8
2019-Sep-16 13:04 333 1 gusting 6 27.2
2019-Sep-16 12:59 336 3 gusting 6 27.2
2019-Sep-16 12:54 321 1 gusting 5 27.2
2019-Sep-16 12:49 013 2 gusting 5 27.2
2019-Sep-16 12:44 324 2 gusting 5 27.2
2019-Sep-16 12:39 340 1 gusting 3 27.2
2019-Sep-16 12:34 360 1 gusting 3 26.7
2019-Sep-16 12:29 334 0 gusting 4 26.7
2019-Sep-16 12:24 349 2 gusting 4 26.7
2019-Sep-16 12:19 355 1 gusting 4 26.7
2019-Sep-16 12:14 360 1 gusting 3 26.1
2019-Sep-16 12:09 355 0 gusting 3 26.1
2019-Sep-16 12:04 325 1 gusting 3 26.1
2019-Sep-16 11:59 317 0 gusting 2 25.6
2019-Sep-16 11:54 346 1 gusting 3 25.6
2019-Sep-16 11:49 340 0 gusting 3 25.6
2019-Sep-16 11:44 022 25.0
2019-Sep-16 11:39 022 0 gusting 1 25.0
2019-Sep-16 11:34 022 25.0
2019-Sep-16 11:29 022 25.0
2019-Sep-16 11:24 022 25.0
2019-Sep-16 11:19 035 0 gusting 1 25.0
2019-Sep-16 11:14 039 0 gusting 1 25.0
2019-Sep-16 11:09 038 25.0
2019-Sep-16 11:04 038 24.4
2019-Sep-16 10:59 039 24.4
2019-Sep-16 10:54 039 24.4
2019-Sep-16 10:49 039 24.4
2019-Sep-16 10:44 039 24.4
2019-Sep-16 10:39 039 24.4
2019-Sep-16 10:34 039 24.4
2019-Sep-16 10:29 039 24.4
2019-Sep-16 10:24 039 24.4
2019-Sep-16 10:19 039 24.4
2019-Sep-16 10:14 041 24.4
2019-Sep-16 10:09 041 24.4
2019-Sep-16 10:04 041 24.4
2019-Sep-16 09:59 041 24.4
2019-Sep-16 09:54 041 0 gusting 0 24.4
2019-Sep-16 09:49 041 24.4
2019-Sep-16 09:44 041 24.4
2019-Sep-16 09:39 041 24.4
2019-Sep-16 09:34 041 24.4
2019-Sep-16 09:29 041 24.4
2019-Sep-16 09:24 041 24.4
2019-Sep-16 09:19 041 24.4
2019-Sep-16 09:14 041 24.4
2019-Sep-16 09:09 041 24.4
2019-Sep-16 09:04 041 24.4
2019-Sep-16 08:59 041 25.0
2019-Sep-16 08:54 041 24.4
2019-Sep-16 08:49 041 24.4
2019-Sep-16 08:44 041 25.0
2019-Sep-16 08:39 041 25.0
2019-Sep-16 08:34 041 25.0
2019-Sep-16 08:29 041 25.0
2019-Sep-16 08:24 041 25.0
2019-Sep-16 08:19 041 25.0
2019-Sep-16 08:14 041 25.0
2019-Sep-16 08:09 041 25.0
2019-Sep-16 08:04 041 25.0
2019-Sep-16 07:59 041 25.0
2019-Sep-16 07:54 041 25.0
2019-Sep-16 07:49 041 25.0
2019-Sep-16 07:44 041 25.0
2019-Sep-16 07:39 041 25.0
2019-Sep-16 07:34 041 25.0
2019-Sep-16 07:29 041 25.0
2019-Sep-16 07:24 041 25.0
2019-Sep-16 07:19 041 25.0
2019-Sep-16 07:14 041 25.0
2019-Sep-16 07:09 041 25.0
2019-Sep-16 07:04 041 25.0
2019-Sep-16 06:59 041 25.0
2019-Sep-16 06:54 041 25.0
2019-Sep-16 06:49 041 25.0
2019-Sep-16 06:44 041 25.0
2019-Sep-16 06:39 041 25.0
2019-Sep-16 06:34 041 25.0
2019-Sep-16 06:29 041 25.0
2019-Sep-16 06:24 041 25.0
2019-Sep-16 06:19 041 25.0
2019-Sep-16 06:14 041 25.0
2019-Sep-16 06:09 041 25.0
2019-Sep-16 06:04 041 25.0
2019-Sep-16 05:59 041 25.0
2019-Sep-16 05:54 041 25.0
2019-Sep-16 05:49 041 25.0
2019-Sep-16 05:44 041 25.0
2019-Sep-16 05:39 041 25.0
2019-Sep-16 05:34 041 25.0
2019-Sep-16 05:29 041 25.0
2019-Sep-16 05:24 041 25.0
2019-Sep-16 05:19 041 25.0
2019-Sep-16 05:14 041 25.0
2019-Sep-16 05:09 041 25.0
2019-Sep-16 05:04 041 25.6
2019-Sep-16 04:59 041 25.0
2019-Sep-16 04:54 041 25.6
2019-Sep-16 04:49 041 25.6
2019-Sep-16 04:44 041 25.6
2019-Sep-16 04:39 041 25.0
2019-Sep-16 04:34 041 25.0
2019-Sep-16 04:29 041 25.0
2019-Sep-16 04:24 041 25.0
2019-Sep-16 04:19 041 25.0
2019-Sep-16 04:14 041 25.6
2019-Sep-16 04:09 041 25.6
2019-Sep-16 04:04 041 25.6
2019-Sep-16 03:59 041 25.6
2019-Sep-16 03:54 041 25.6
2019-Sep-16 03:49 041 25.6
2019-Sep-16 03:44 041 25.6
2019-Sep-16 03:39 041 25.6
2019-Sep-16 03:34 041 25.6
2019-Sep-16 03:29 041 25.6
2019-Sep-16 03:24 041 25.6
2019-Sep-16 03:19 041 25.6
2019-Sep-16 03:14 041 25.6
2019-Sep-16 03:09 041 25.6
2019-Sep-16 03:04 041 25.6
2019-Sep-16 02:59 041 25.6
2019-Sep-16 02:54 041 26.1
2019-Sep-16 02:49 041 26.1
2019-Sep-16 02:44 041 26.1
2019-Sep-16 02:39 041 26.1
2019-Sep-16 02:34 041 26.1
2019-Sep-16 02:29 041 26.1
2019-Sep-16 02:24 041 26.1
2019-Sep-16 02:19 041 26.1
2019-Sep-16 02:14 041 26.7
2019-Sep-16 02:09 041 26.7
2019-Sep-16 02:04 041 26.7
2019-Sep-16 01:59 041 26.7
2019-Sep-16 01:54 041 26.7
2019-Sep-16 01:49 041 26.7
2019-Sep-16 01:44 041 27.2
2019-Sep-16 01:39 041 27.2
2019-Sep-16 01:34 041 27.2
2019-Sep-16 01:29 041 27.2
2019-Sep-16 01:24 044 27.2
2019-Sep-16 01:19 044 0 gusting 2 27.2
2019-Sep-16 01:14 036 27.2
2019-Sep-16 01:09 010 0 gusting 2 27.2
2019-Sep-16 01:04 010 0 gusting 2 27.2
2019-Sep-16 00:59 022 0 gusting 2 27.2
2019-Sep-16 00:54 022 27.2
2019-Sep-16 00:49 026 0 gusting 4 27.2
2019-Sep-16 00:44 059 1 gusting 4 27.8
2019-Sep-16 00:39 055 1 gusting 4 27.8
2019-Sep-16 00:34 034 1 gusting 4 27.8
2019-Sep-16 00:29 027 1 gusting 4 27.8
2019-Sep-16 00:24 014 1 gusting 5 27.8
2019-Sep-16 00:19 019 3 gusting 5 28.3
2019-Sep-16 00:14 331 2 gusting 5 28.3
2019-Sep-16 00:09 333 1 gusting 7 28.3
2019-Sep-16 00:04 018 3 gusting 7 28.3
2019-Sep-15 23:59 342 3 gusting 6 28.3
2019-Sep-15 23:54 324 2 gusting 6 28.3
2019-Sep-15 23:49 317 3 gusting 6 28.9
2019-Sep-15 23:44 327 3 gusting 6 28.9
2019-Sep-15 23:39 334 1 gusting 8 28.9
2019-Sep-15 23:34 344 3 gusting 8 28.9
2019-Sep-15 23:29 005 3 gusting 8 28.9
2019-Sep-15 23:24 337 2 gusting 9 28.9
2019-Sep-15 23:19 302 3 gusting 9 28.9
2019-Sep-15 23:14 295 4 gusting 8 28.9
2019-Sep-15 23:09 313 5 gusting 8 28.9
2019-Sep-15 23:04 290 3 gusting 8 28.9
2019-Sep-15 22:59 298 4 gusting 7 29.4
2019-Sep-15 22:54 298 3 gusting 6 29.4
2019-Sep-15 22:49 317 3 gusting 6 29.4
2019-Sep-15 22:44 319 3 gusting 7 29.4
2019-Sep-15 22:39 280 3 gusting 9 29.4
2019-Sep-15 22:34 284 5 gusting 9 30.0
2019-Sep-15 22:29 281 4 gusting 7 30.0
2019-Sep-15 22:24 275 4 gusting 8 30.0
2019-Sep-15 22:19 279 4 gusting 9 30.0
2019-Sep-15 22:14 300 3 gusting 6 30.0
2019-Sep-15 22:09 290 3 gusting 8 30.0
2019-Sep-15 22:04 277 6 gusting 8 29.4
2019-Sep-15 21:59 315 3 gusting 6 29.4
2019-Sep-15 21:54 241 2 gusting 6 29.4
2019-Sep-15 21:49 277 2 gusting 10 29.4
2019-Sep-15 21:44 281 3 gusting 11 29.4
2019-Sep-15 21:39 294 5 gusting 11 30.0
2019-Sep-15 21:34 282 5 gusting 9 30.0
2019-Sep-15 21:29 290 3 gusting 7 30.0
2019-Sep-15 21:24 268 3 gusting 9 29.4
2019-Sep-15 21:19 267 3 gusting 8 30.0
2019-Sep-15 21:14 248 3 gusting 8 30.0
2019-Sep-15 21:09 272 5 gusting 10 30.0
2019-Sep-15 21:04 281 5 gusting 10 30.6
2019-Sep-15 20:59 313 4 gusting 7 30.6
2019-Sep-15 20:54 266 4 gusting 8 30.6
2019-Sep-15 20:49 242 4 gusting 8 30.6
2019-Sep-15 20:44 262 4 gusting 7 30.6
2019-Sep-15 20:39 229 3 gusting 7 30.6
2019-Sep-15 20:34 274 3 gusting 11 31.1
2019-Sep-15 20:29 284 4 gusting 11 31.1
2019-Sep-15 20:24 286 2 gusting 6 31.1
2019-Sep-15 20:19 249 2 gusting 8 31.1
2019-Sep-15 20:14 273 4 gusting 9 31.1
2019-Sep-15 20:09 252 4 gusting 9 31.7
2019-Sep-15 20:04 257 2 gusting 6 31.7